Location: Shenandoah County Park
(38.9356°N, 78.4524°W)
Time: 08:51:23
(UTC-05:00)

Transit 2A Rocket - Visible Passes

Search period start: 28 November 2023 00:00
Search period end: 08 December 2023 00:00
Orbit: 593 x 903 km, 66.7° (Epoch: 27 November)

Date Brightness Start Highest point End Pass type
(mag) Time Alt. Az. Time Alt. Az. Time Alt. Az.
29 Nov 7.1 06:21:39 10° NNE 06:23:43 13° NE 06:25:50 10° ENE visible
01 Dec 6.2 06:35:22 10° N 06:39:15 30° NE 06:43:16 10° ESE visible
02 Dec 7.0 05:52:27 10° N 05:55:23 17° NE 05:58:24 10° E visible
04 Dec 5.7 06:06:38 10° NNW 06:10:48 42° ENE 06:15:09 10° SE visible
05 Dec 6.6 05:23:39 11° N 05:27:00 23° NE 05:30:38 10° ESE visible
06 Dec 7.2 04:41:32 12° NNE 04:43:04 13° NE 04:45:18 10° ENE visible
06 Dec 4.6 06:21:33 10° NNW 06:25:55 70° WSW 06:30:34 10° SSE visible
07 Dec 5.0 05:39:21 20° NNW 05:42:17 60° ENE 05:46:53 10° SE visible
